Regional Weather Roundup
Issued by NWS Cleveland, OH

Home | Current Version | Previous Version | Graphics & Text | Print | Product List | Glossary On
Versions: 1 2 3 4 5 6 7 8 9 10 11 12 13 14 15 16 17 18 19 20 21 22 23 24 25 26 27 28 29 30 31 32 33 34 35 36 37 38 39 40 41 42 43 44 45 46 47 48 49 50
000
ASUS41 KCLE 161602
RWRCLE
OHIO REGIONAL WEATHER ROUNDUP
NATIONAL WEATHER SERVICE CLEVELAND, OH
1200 PM EDT WED AUG 16 2017

NOTE: "FAIR" INDICATES FEW OR NO CLOUDS BELOW 12,000 FEET WITH NO
SIGNIFICANT WEATHER AND/OR OBSTRUCTIONS TO VISIBILITY.

OHZ001>008-015>018-024>027-034-035-043-044-161700-
   NORTHWEST OHIO

CITY           SKY/WX    TMP DP  RH WIND       PRES   REMARKS
DEFIANCE       SUNNY     80  67  64 SE8       30.05F
FINDLAY        SUNNY     82  66  58 E5        30.06S
TOLEDO EXPRESS SUNNY     80  63  55 SE8       30.07S
TOLEDO EXEC    SUNNY     81  64  56 SE12      30.08S
LIMA           PTSUNNY   83  68  60 SE6       30.06S
$$

OHZ009>014-019>023-028>033-038-089-161700-
   NORTHEAST OHIO

CITY           SKY/WX    TMP DP  RH WIND       PRES   REMARKS
CLE-HOPKINS    SUNNY     82  58  43 CALM      30.10S
CLE-LAKEFRONT  SUNNY     77  63  61 N9        30.08R
CUY CO. ARPT   SUNNY     81  59  47 E6        30.10S
LORAIN-ELYRIA  SUNNY     78  58  49 VRB3      30.09S
ASHTABULA      SUNNY     77  59  53 N6        30.10F
AKRON-CANTON   SUNNY     82  59  45 VRB5      30.10S
WOOSTER        SUNNY     80  60  50 VRB5      30.10S
MANSFIELD      SUNNY     80  63  55 E6        30.10S
YOUNGSTOWN     MOSUNNY   77  58  51 VRB3      30.10S
$$

OHZ042-051>053-060>062-070>072-077>081-161700-
  SOUTHWEST OHIO

CITY           SKY/WX    TMP DP  RH WIND       PRES   REMARKS
CINC-COVINGTON MOSUNNY   85  71  63 SW5       30.06S HX  90
CINC-LUNKEN    SUNNY     85  73  67 S7        30.05S HX  91
HAMILTON       MOSUNNY   86  70  58 CALM      30.05F HX  90
DAYTON         MOSUNNY   84  67  56 SW6       30.07F
WRIGHT-PAT AFB NOT AVBL
DAYTON GENERAL MOSUNNY   84  68  58 MISG      30.06S
WILMINGTON     MOSUNNY   85  69  58 VRB3      30.07R
$$

OHZ036-037-039>041-045>050-054>059-063>069-073>076-082>088-161700-
  CENTRAL AND SOUTHEAST OHIO

CITY           SKY/WX    TMP DP  RH WIND       PRES   REMARKS
COLUMBUS       MOSUNNY   84  70  62 CALM      30.06S
OSU AIRPORT    SUNNY     83  71  67 CALM      30.07R
BOLTON FIELD   MOSUNNY   81  72  74 S3        30.07S
RICKENBACK AFB SUNNY     82  71  68 SW3       30.06S
NEWARK         SUNNY     83  70  64 VRB5      30.07S
MARION         SUNNY     81  67  62 VRB3      30.08S
LANCASTER      SUNNY     84  70  62 SW3       30.07S
ZANESVILLE     SUNNY     80  68  66 SE6       30.08S
NEW PHILLY     NOT AVBL
$$




USA.gov is the U.S. government's official web portal to all federal, state and local government web resources and services.